Nashua, NH

8:51 AM EST on December 09, 2016 (GMT -0500)
Boire

Weather History for KASH - June, 2013

Change the Weather History Date:

Thursday, June 27, 2013

  Actual Average Record
Temperature  
Mean Temperature 66 °F -  
Max Temperature 70 °F 79 °F 97 °F (1952)
Min Temperature 61 °F 55 °F 40 °F (1965)
Growing Degree Days 16 (Base 50)    
Moisture  
Dew Point 63 °F    
Average Humidity 92    
Maximum Humidity 100    
Minimum Humidity 83    
Precipitation  
Precipitation 0.03 in - - ()
Sea Level Pressure  
Sea Level Pressure 30.08 in    
Wind  
Wind Speed 2 mph (East)    
Max Wind Speed 8 mph    
Max Gust Speed -    
Visibility 4 miles    
Events Rain    
Averages and records for this station are not official NWS values.
T = Trace of Precipitation, MM = Missing Value Source: NWS Daily Summary

Daily Weather History Graph

Daily Weather History Graph

Search for Another Location

Airport or City:

Trip Planner

Search our weather history database for the weather conditions in past years. The results will help you decide how hot, cold, wet, or windy it might be!

Date:

Astronomy

Jun. 27, 2013 Rise Set
Actual Time 5:09 AM EDT 8:28 PM EDT
Civil Twilight 4:34 AM EDT 9:03 PM EDT
Nautical Twilight 3:49 AM EDT 9:49 PM EDT
Astronomical Twilight 2:53 AM EDT 10:44 PM EDT
Moon 11:15 PM EDT (6/27) 10:14 AM EDT (6/27)
Length of Visible Light 16h 28m
Length of Day
15h 18m
Waning Gibbous, 76% of the Moon is Illuminated
Jun 27
Waning Gibbous
Jun 30
Last Quarter
Jul 8
New
Jul 15
First Quarter
Jul 22
Full

Hourly Weather History & Observations

Time (EDT) Temp. Dew Point Humidity Pressure Visibility Wind Dir Wind Speed Gust Speed Precip Events Conditions
12:15 AM 68.0 °F 66.2 °F 94% 29.85 in 5.0 mi East 5.8 mph - N/A   Mostly Cloudy
12:36 AM 68.0 °F 66.2 °F 94% 29.86 in 5.0 mi Calm Calm - N/A   Mostly Cloudy
12:51 AM 68.0 °F 65.8 °F 93% 30.57 in 4.0 mi Calm Calm - N/A   Scattered Clouds
1:20 AM 66.2 °F 64.4 °F 94% 29.86 in 2.0 mi Calm Calm - N/A   Partly Cloudy
1:34 AM 66.2 °F 64.4 °F 94% 29.86 in 1.5 mi Calm Calm - N/A   Mostly Cloudy
1:51 AM 65.8 °F 63.9 °F 93% 30.58 in 2.5 mi ESE 4.6 mph - N/A   Scattered Clouds
2:02 AM 66.2 °F 64.4 °F 94% 29.86 in 4.0 mi Calm Calm - N/A   Partly Cloudy
2:51 AM 64.9 °F 63.0 °F 93% 30.55 in 4.0 mi Calm Calm - N/A   Mostly Cloudy
3:16 AM 64.4 °F 62.6 °F 94% 29.84 in 5.0 mi Calm Calm - N/A   Scattered Clouds
3:28 AM 64.4 °F 62.6 °F 94% 29.84 in 5.0 mi Calm Calm - N/A   Mostly Cloudy
3:37 AM 64.4 °F 62.6 °F 94% 29.84 in 5.0 mi Calm Calm - N/A   Scattered Clouds
3:51 AM 63.9 °F 63.0 °F 97% 30.55 in 5.0 mi East 6.9 mph - N/A   Scattered Clouds
4:05 AM 64.4 °F 62.6 °F 94% 29.83 in 3.0 mi ESE 6.9 mph - N/A   Mostly Cloudy
4:18 AM 64.4 °F 62.6 °F 94% 29.84 in 4.0 mi East 6.9 mph - N/A   Scattered Clouds
4:43 AM 64.4 °F 62.6 °F 94% 29.84 in 6.0 mi East 4.6 mph - N/A   Mostly Cloudy
4:51 AM 63.9 °F 61.9 °F 93% 30.56 in 4.0 mi ENE 4.6 mph - N/A   Mostly Cloudy
5:05 AM 62.6 °F 62.6 °F 100% 29.84 in 2.5 mi Calm Calm - N/A   Mostly Cloudy
5:35 AM 62.6 °F 60.8 °F 94% 29.85 in 1.8 mi East 5.8 mph - N/A   Mostly Cloudy
5:51 AM 61.9 °F 61.0 °F 97% 30.58 in 1.2 mi NNE 3.5 mph - N/A   Mostly Cloudy
6:03 AM 62.6 °F 60.8 °F 94% 29.86 in 1.8 mi Calm Calm - N/A   Mostly Cloudy
6:32 AM 62.6 °F 60.8 °F 94% 29.88 in 1.0 mi Calm Calm - N/A   Mist
6:42 AM 62.6 °F 60.8 °F 94% 29.88 in 0.8 mi Calm Calm - N/A   Mist
6:51 AM 61.9 °F 61.0 °F 97% 30.61 in 1.0 mi Calm Calm - N/A   Mist
7:03 AM 62.6 °F 60.8 °F 94% 29.88 in 1.2 mi SE 5.8 mph - N/A   Mostly Cloudy
7:10 AM 62.6 °F 60.8 °F 94% 29.88 in 1.8 mi SE 6.9 mph - N/A   Mostly Cloudy
7:14 AM 62.6 °F 60.8 °F 94% 29.88 in 2.0 mi SE 5.8 mph - N/A   Mostly Cloudy
7:44 AM 62.6 °F 60.8 °F 94% 29.88 in 10.0 mi SE 5.8 mph - N/A   Mostly Cloudy
7:51 AM 61.9 °F 59.9 °F 93% 30.60 in 4.0 mi Calm Calm - N/A   Overcast
8:51 AM 63.9 °F 61.0 °F 90% 30.58 in 3.0 mi Calm Calm - N/A   Overcast
9:22 AM 64.4 °F 60.8 °F 88% 29.86 in 10.0 mi Calm Calm - N/A   Overcast
9:51 AM 64.9 °F 61.0 °F 87% 30.58 in 10.0 mi Calm Calm - N/A   Mostly Cloudy
10:39 AM 66.2 °F 62.6 °F 88% 29.86 in 2.5 mi Calm Calm - N/A   Mostly Cloudy
10:51 AM 65.8 °F 61.9 °F 87% 30.58 in 2.5 mi Calm Calm - N/A   Mostly Cloudy
10:58 AM 66.2 °F 62.6 °F 88% 29.85 in 5.0 mi Calm Calm - N/A   Haze
11:51 AM 68.0 °F 63.0 °F 84% 30.57 in 5.0 mi Calm Calm - N/A   Haze
12:38 PM 69.8 °F 64.4 °F 83% 29.84 in 10.0 mi Calm Calm - N/A   Overcast
12:51 PM 68.9 °F 63.9 °F 84% 30.56 in 10.0 mi Calm Calm - N/A   Overcast
1:51 PM 68.9 °F 63.9 °F 84% 30.55 in 9.0 mi Calm Calm - N/A   Overcast
2:15 PM 69.8 °F 64.4 °F 83% 29.83 in 8.0 mi Calm Calm - N/A   Overcast
2:51 PM 70.0 °F 64.9 °F 84% 30.55 in 9.0 mi Calm Calm - N/A   Overcast
3:51 PM 70.0 °F 65.8 °F 87% 30.53 in 3.0 mi Calm Calm - 0.00 in Rain Light Rain
4:01 PM 69.8 °F 66.2 °F 88% 29.81 in 3.0 mi Calm Calm - 0.00 in Rain Light Rain
4:08 PM 69.8 °F 66.2 °F 88% 29.82 in 4.0 mi Calm Calm - 0.01 in Rain Light Rain
4:51 PM 68.9 °F 65.8 °F 90% 30.53 in 6.0 mi East 8.1 mph - 0.01 in   Overcast
5:51 PM 66.9 °F 64.9 °F 93% 30.52 in 6.0 mi ESE 6.9 mph - 0.00 in   Overcast
6:16 PM 66.2 °F 64.4 °F 94% 29.80 in 1.8 mi ESE 5.8 mph - 0.00 in Rain Light Rain
6:21 PM 66.2 °F 64.4 °F 94% 29.80 in 1.0 mi ESE 5.8 mph - 0.01 in Rain Light Rain
6:29 PM 66.2 °F 64.4 °F 94% 29.81 in 1.5 mi ESE 6.9 mph - 0.01 in Rain Light Rain
6:34 PM 66.2 °F 64.4 °F 94% 29.81 in 3.0 mi SE 4.6 mph - 0.01 in Rain Light Rain
6:51 PM 65.8 °F 63.9 °F 93% 30.53 in 10.0 mi ESE 6.9 mph - 0.01 in   Overcast
7:25 PM 64.4 °F 62.6 °F 94% 29.80 in 10.0 mi Calm Calm - 0.00 in   Overcast
7:51 PM 64.9 °F 63.0 °F 93% 30.53 in 10.0 mi ESE 8.1 mph - 0.00 in   Overcast
8:15 PM 64.4 °F 62.6 °F 94% 29.80 in 10.0 mi ESE 5.8 mph - N/A   Overcast
8:51 PM 64.9 °F 61.9 °F 90% 30.53 in 7.0 mi East 5.8 mph - 0.00 in Rain Light Rain
8:57 PM 64.4 °F 62.6 °F 94% 29.81 in 2.5 mi East 5.8 mph - 0.01 in Rain Light Rain
9:18 PM 64.4 °F 62.6 °F 94% 29.81 in 2.0 mi Calm Calm - 0.01 in Rain Light Rain
9:30 PM 64.4 °F 62.6 °F 94% 29.81 in 3.0 mi Calm Calm - 0.01 in Rain Light Rain
9:51 PM 63.9 °F 61.9 °F 93% 30.54 in 4.0 mi Calm Calm - 0.01 in   Mostly Cloudy
10:04 PM 64.4 °F 62.6 °F 94% 29.81 in 4.0 mi Calm Calm - N/A   Scattered Clouds
10:17 PM 64.4 °F 62.6 °F 94% 29.81 in 2.5 mi NE 4.6 mph - N/A   Scattered Clouds
10:25 PM 64.4 °F 62.6 °F 94% 29.80 in 5.0 mi NE 3.5 mph - N/A   Partly Cloudy
10:51 PM 64.4 °F 62.6 °F 94% 29.80 in 2.5 mi Calm Calm - N/A   Mostly Cloudy
10:58 PM 64.4 °F 62.6 °F 94% 29.80 in 3.0 mi Calm Calm - N/A   Mostly Cloudy
11:05 PM 64.4 °F 62.6 °F 94% 29.79 in 4.0 mi ENE 8.1 mph - N/A   Mostly Cloudy
11:11 PM 64.4 °F 62.6 °F 94% 29.79 in 2.5 mi ENE 4.6 mph - N/A   Scattered Clouds
11:42 PM 62.6 °F 62.6 °F 100% 29.78 in 3.0 mi Calm Calm - N/A   Scattered Clouds
11:51 PM 63.0 °F 61.9 °F 96% 30.50 in 2.5 mi Calm Calm - N/A   Scattered Clouds
11:59 PM 62.6 °F 62.6 °F 100% 29.78 in 4.0 mi ENE 3.5 mph - N/A   Mostly Cloudy